WESTFORD NEEDLES, 19051

Orbit data source: Space-Track

WESTFORD NEEDLES, 19051 is space debris in LEO originally from a launch on Thu, 09 May 1963 UTC launched from the Air Force Western Test Range (AFWTR). Debris objects in space refer to the collection of defunct objects orbiting the Earth. Examples of debris include non-operational satellites, rocket bodies, and fragments generated from explosions, collisions, or faulty payload assembly.

Loading next visibility...
Identifier
19051, 1963-014EA
Orbit
LEO
Country
Flag of USUS
Related business
Manufacturer
Unknown
Mission
Spacecraft
Bus & Motor
Unknown
Mass
Unknown
Launch date (UTC)
1963-05-09 (63 years ago)
Launch vehicle
Unknown
Launch site
Air Force Western Test Range (AFWTR)
Object type
Payload
Rocket body
Debris
Shape & HBR
Unknown shape, 0.2 m
Radar Cross Section
Medium (>0.1 m² and <1 m²)

Expand to show TLE details & history
Last TLE update: 3 days ago

TLE from 3 days ago
0 WESTFORD NEEDLES
1 19051U 63014EA  26173.37649796  .00000094  00000-0  41812-1 0  9990
2 19051  87.3728 151.9198 0171676 232.6569 125.8537  8.66794788443799
Epoch: 2026-06-22T09:02Z
TLE epoch observation values (Epoch: 2026-06-22T09:02:09.423Z)
Latitude
-0.00008°
Longitude
105.81723°
Altitude
3,737.175 km
Speed
6.246 km/s
True Right ascension
10h 07m 40s
True Declination
0° 00' 00"
Sunlit
Object was in daylight at epoch
Visualization orbit readout
Latitude
Unknown
Longitude
Unknown
Altitude
Unknown
Speed
Unknown
Apparent Right ascension
Unknown
Apparent Declination
Unknown
Sunlit
N/A
Visualization observer readout
Local Sidereal Time
14:00:15
Azimuth
Unknown
Elevation
Unknown
Doppler factor
Unknown
Orbital elements
Apogee altitude
3,802.045 km
Perigee altitude
3,458.406 km
Semi-major axis
10,008.363 km
Eccentricity
0.01717
Inclination
87.3728°
RAAN
151.9198°
Arg. of periapsis
232.6569°
True anomaly
127.4282°
Mean anomaly
125.8537°
Eccentric anomaly
126.64294°
Mean motion
2.1677 °/min
Orbital period
166.07 mins
BSTAR
0.041812
Loading maneuver chart data...
Computing Atmospheric mass density...

Documentation

Showing up to 5 results
|